Lapse_Rate
5.9 6.0 6.0 6.0 6.0 6.1 6.1 6.0 6.0 6.0 6.2 6.1 6.2 6.2 6.1 6.2 6.1 5.9 5.9 6.1 6.1 6.0 6.5 6.8 7.0 7.0 7.0 6.9 6.6 6.6 6.9 6.8 6.8 6.8 6.0 5.4 5.3 5.5 5.4 5.4 5.4 5.9 5.8 6.1 6.2
5.8 5.9 5.9 6.0 6.0 5.9 6.1 6.0 6.0 6.0 6.1 6.0 6.1 6.3 6.2 6.2 6.1 5.8 6.3 6.3 5.8 5.7 6.3 6.4 6.7 6.7 6.8 6.7 6.4 6.3 7.0 6.6 6.2 6.2 6.0 5.7 5.5 5.2 5.1 5.2 5.7 6.0 6.0 6.0 6.0
5.8 5.8 5.9 5.9 6.0 5.9 5.9 5.8 5.9 5.9 6.0 6.0 6.1 6.3 6.2 6.1 6.2 5.7 5.4 5.8 5.7 5.7 5.8 6.2 6.4 6.5 6.8 6.6 6.5 6.4 6.6 6.3 6.1 6.1 6.0 5.8 5.6 5.3 5.2 5.2 5.6 5.7 6.0 6.0 6.0
5.9 5.8 5.8 5.9 5.9 5.9 5.9 5.7 5.8 5.8 5.8 5.9 6.0 6.3 6.2 6.2 6.3 5.8 5.6 5.6 5.8 5.8 5.9 6.2 6.2 6.4 6.5 6.2 6.6 6.4 6.5 6.1 6.0 5.8 5.8 5.8 5.7 5.5 5.3 5.3 5.3 5.6 5.6 5.8 5.7
5.8 5.8 5.8 5.9 5.9 5.9 5.9 5.8 5.7 5.8 5.8 5.8 6.0 6.2 6.1 6.1 6.1 6.0 6.2 5.7 5.9 6.0 6.0 6.0 5.5 5.7 6.2 6.1 6.5 6.2 6.2 6.1 5.9 5.5 5.5 5.7 5.3 5.3 5.7 5.0 5.0 5.6 5.6 5.6 5.5
5.8 5.8 5.8 5.8 5.8 5.8 5.9 5.9 5.7 5.8 5.8 5.9 5.9 6.1 5.9 5.9 5.8 6.0 6.1 6.1 6.0 6.0 5.6 6.2 6.1 6.1 5.9 6.2 6.5 6.1 6.0 6.1 6.0 5.4 5.3 5.4 5.4 5.2 5.6 5.1 5.5 5.4 5.7 5.6 5.5
5.8 5.8 5.8 5.9 5.9 5.9 5.9 5.9 5.9 5.8 5.7 5.9 5.8 6.0 5.7 6.0 5.8 5.7 6.2 6.0 6.1 6.3 6.2 6.0 6.4 6.2 6.5 6.4 6.6 6.1 6.3 5.8 5.8 5.6 5.3 5.4 5.3 5.3 5.7 5.4 5.4 5.1 5.7 5.7 5.4
5.9 5.9 5.9 6.0 6.0 6.0 6.0 6.0 5.9 5.9 5.8 5.8 5.8 5.8 5.6 6.0 6.0 5.7 5.9 5.8 6.1 6.3 6.2 6.3 6.4 6.7 6.7 6.7 6.3 6.7 6.8 6.9 6.1 5.7 5.7 5.5 5.5 5.5 5.4 5.0 4.7 4.8 5.4 5.6 5.4
6.0 5.9 5.9 6.0 6.1 6.1 6.1 6.0 5.9 5.9 5.9 5.8 5.7 5.7 5.5 6.0 5.9 5.8 5.8 6.0 6.1 6.4 6.6 6.5 6.5 6.8 6.9 6.6 7.2 6.8 7.3 7.2 6.4 6.1 6.1 5.9 5.6 5.4 5.1 4.8 4.8 4.7 4.9 5.2 5.4
6.0 6.0 6.0 6.1 6.1 6.1 6.1 6.1 6.0 6.0 5.9 5.7 5.6 5.6 5.7 5.8 6.1 6.0 6.0 6.3 6.4 6.3 6.5 6.7 6.8 7.1 7.2 6.9 8.0 7.7 7.7 7.3 7.1 6.5 6.3 6.3 6.0 5.7 5.2 5.2 4.9 4.9 4.9 4.7 4.7
5.9 6.0 6.0 6.2 6.2 6.1 6.2 6.1 6.0 6.0 6.0 5.6 5.4 5.3 5.9 5.9 6.0 5.9 6.2 6.1 6.4 6.8 6.6 7.0 7.5 7.9 7.8 7.6 7.7 7.5 7.6 7.7 7.3 6.7 6.5 6.5 6.3 5.6 5.5 5.2 5.0 5.0 4.9 4.9 4.9
5.8 6.0 6.1 6.3 6.2 6.2 6.2 6.1 6.0 6.0 5.8 5.9 5.8 5.6 5.8 5.9 5.8 5.9 6.0 6.1 6.2 6.4 6.7 7.2 8.0 7.6 7.5 7.6 7.7 7.8 8.0 8.2 7.5 7.1 7.3 7.0 6.7 6.1 5.7 5.6 5.4 5.3 5.2 5.2 5.1
5.8 5.9 6.1 6.2 6.2 6.2 6.1 6.0 5.9 6.0 5.8 5.9 5.9 5.5 5.5 5.8 5.7 5.6 5.9 6.0 6.1 6.6 6.6 7.3 7.9 7.4 7.6 7.8 7.9 8.3 8.4 8.5 8.8 7.4 7.5 7.7 7.6 6.7 6.3 6.0 5.6 5.5 5.5 5.4 5.4
5.9 5.9 6.0 6.3 6.3 6.2 6.1 6.1 6.0 6.0 6.3 6.2 6.1 5.7 5.8 5.7 5.7 5.6 5.8 5.9 5.9 6.3 6.5 6.7 7.0 7.1 7.8 7.9 8.2 9.3 8.4 8.4 8.2 8.0 8.6 8.0 8.0 7.6 7.2 6.5 6.1 5.7 5.5 5.5 5.4
5.8 5.9 6.1 6.1 6.2 6.3 6.3 6.2 6.3 6.4 7.7 6.6 5.9 6.3 6.0 6.1 6.1 5.7 5.8 6.0 6.3 6.3 6.6 7.0 6.9 7.1 7.8 8.1 7.9 8.0 8.3 8.4 8.4 8.9 8.7 8.3 9.0 7.8 7.4 7.2 6.7 6.2 6.1 5.6 5.4
5.7 5.9 6.0 6.0 6.0 6.2 6.2 6.2 6.3 6.6 7.4 6.5 6.3 6.3 6.3 6.4 6.3 6.1 6.0 6.1 6.3 6.3 6.7 6.6 7.0 7.3 7.4 7.8 7.9 7.7 8.0 8.3 8.6 9.4 9.6 9.3 8.9 8.7 7.8 6.9 6.7 6.6 6.2 6.4 5.9
5.5 5.7 5.9 6.0 6.0 6.0 6.0 6.0 6.3 6.9 6.7 6.6 6.6 6.5 6.9 6.9 6.7 6.5 6.5 6.5 6.7 6.8 7.2 7.1 7.4 7.5 7.7 7.9 7.4 7.8 8.5 9.5 9.6 9.8 9.8 8.5 8.7 8.4 5.9 7.4 6.6 6.4 6.5 6.3 6.3
5.8 5.8 5.8 5.9 5.8 5.7 5.8 5.6 6.5 6.3 6.5 6.2 6.4 6.7 7.2 7.4 7.1 6.9 7.0 7.2 7.0 7.2 8.0 7.8 7.6 7.4 7.9 8.2 8.3 8.2 9.5 9.7 9.5 9.9 9.9 7.6 8.5 7.6 7.3 7.5 7.3 7.4 7.7 6.6 6.5
5.7 5.8 5.8 5.8 5.9 5.6 5.5 5.8 6.5 6.3 6.4 6.6 7.0 7.3 7.6 7.6 7.4 7.3 7.3 7.6 7.5 7.3 7.8 8.2 9.3 7.4 7.6 7.8 8.4 8.3 8.4 8.9 9.5 9.2 9.1 9.5 6.6 6.7 6.3 6.7 7.0 6.9 6.3 6.2 5.9
5.5 5.5 5.5 5.6 5.6 5.5 5.4 6.3 6.0 6.0 6.5 7.0 7.6 7.3 8.3 8.1 7.8 7.8 8.0 7.9 7.7 7.4 7.7 8.2 9.1 7.9 7.6 7.9 8.1 8.3 8.8 8.9 9.1 9.4 9.5 9.6 7.9 7.9 5.9 6.5 6.4 6.0 6.2 6.2 6.1
5.4 5.1 5.3 5.5 5.4 5.3 5.9 6.4 6.0 5.9 6.4 6.7 7.3 7.7 7.9 8.3 8.2 8.4 8.6 8.1 8.0 7.7 7.6 8.2 8.6 8.1 7.6 8.1 9.3 8.1 8.5 8.6 9.2 9.1 9.8 9.9 9.6 7.0 6.5 6.3 5.6 5.7 6.0 6.0 6.0
5.3 5.1 5.3 5.4 5.2 5.5 5.9 5.8 5.7 5.9 6.0 6.4 6.8 7.3 7.9 8.0 8.5 8.7 8.9 8.7 8.3 8.2 8.1 8.2 9.2 9.4 8.9 7.9 8.4 8.5 8.9 8.8 9.5 9.4 8.8 8.5 8.8 7.4 7.1 5.9 6.2 6.1 6.0 6.1 6.1
5.3 5.2 5.1 5.2 5.8 5.9 5.5 5.7 5.7 6.1 6.3 6.6 7.0 7.4 7.6 8.1 8.6 8.7 8.8 8.4 8.6 8.7 8.6 8.6 9.3 9.3 8.6 8.1 8.3 8.6 8.2 8.4 8.5 8.6 9.3 8.9 8.9 7.4 7.0 6.3 6.9 7.0 6.7 6.4 6.1
5.3 5.1 5.1 5.2 5.6 5.5 5.6 6.0 6.1 6.2 6.5 7.0 7.4 7.8 8.1 8.0 8.3 8.5 8.5 8.6 8.7 8.8 9.1 9.0 9.5 9.6 9.7 9.5 9.5 8.7 8.5 8.4 8.6 9.5 9.6 9.4 7.4 7.4 6.7 6.5 6.7 6.9 7.1 7.1 7.2
5.3 5.0 5.3 5.6 5.5 5.5 5.8 5.9 6.2 6.3 6.8 7.4 7.6 7.8 8.4 8.4 8.4 8.4 8.5 8.6 8.9 9.2 9.3 9.1 9.6 9.2 8.9 8.9 9.1 9.0 8.8 8.6 8.7 8.9 8.9 9.2 8.3 6.7 6.6 5.9 6.4 6.5 6.4 6.0 6.1
5.4 5.3 5.3 5.5 5.5 5.7 5.9 6.2 6.2 6.4 7.2 7.8 7.6 8.0 8.2 8.4 8.6 8.9 8.2 8.2 8.7 9.1 9.0 9.2 8.7 8.8 8.6 8.6 8.7 8.7 8.3 8.3 8.2 7.8 7.9 8.1 8.1 6.6 6.0 5.7 6.1 5.9 5.8 5.8 5.8
5.4 5.3 5.2 5.4 5.6 5.9 6.2 6.1 6.3 6.9 7.7 7.7 7.6 7.7 8.0 8.4 8.5 8.1 8.2 8.6 8.8 8.4 8.7 8.6 9.0 8.8 9.4 8.3 8.4 8.7 8.3 7.9 7.9 7.5 7.7 8.0 7.6 6.4 6.8 6.0 5.9 5.7 5.8 5.8 5.6
Wind_Speed
17 17 17 16 16 16 16 16 17 17 16 16 15 15 14 13 12 6 5 6 7 22 9 9 6 5 3 1 1 1 4 9 10 10 10 11 12 7 8 13 7 3 17 20 18
17 17 17 17 16 16 16 15 16 17 16 17 14 14 13 11 6 7 6 13 22 17 11 8 6 5 1 1 1 3 8 10 6 8 12 10 10 12 12 12 13 15 20 19 18
19 18 18 17 17 17 17 16 16 16 16 17 14 14 13 10 7 9 16 13 22 15 8 1 8 3 1 2 1 1 7 4 4 8 13 13 11 9 13 9 13 21 22 19 18
19 19 18 18 17 17 17 16 16 16 16 16 15 13 13 5 2 7 17 14 17 10 8 5 6 4 2 3 3 5 4 4 8 12 12 11 10 12 4 12 14 19 19 17 16
18 19 19 19 18 18 17 16 16 16 16 16 14 12 6 7 9 11 19 10 12 8 5 1 3 3 3 7 6 8 7 11 11 13 13 12 11 10 6 10 18 19 17 16 13
20 21 21 21 20 19 18 17 16 17 16 15 13 12 6 5 3 12 15 11 10 9 2 2 4 4 4 6 3 7 10 14 12 13 12 13 13 5 9 17 20 18 16 14 13
22 22 22 21 21 20 19 18 17 16 15 13 10 5 6 7 3 12 12 8 5 7 1 3 5 5 3 9 5 7 15 12 11 11 9 13 8 13 15 19 19 17 14 13 12
23 24 23 22 21 21 20 19 17 14 11 8 7 5 3 4 3 9 10 8 7 5 5 5 3 3 2 5 7 5 8 8 9 10 9 9 12 14 17 19 18 16 13 12 11
25 25 25 23 23 23 21 19 13 6 5 5 6 6 7 1 5 9 9 1 7 6 4 5 6 3 4 6 6 4 7 7 8 10 8 8 10 15 16 16 16 14 13 12 12
25 26 26 24 23 24 22 9 1 4 4 5 4 5 5 4 5 7 8 5 2 4 5 5 7 7 8 5 2 6 5 5 6 9 7 7 11 15 15 15 16 15 14 13 12
26 27 26 25 25 23 13 4 5 5 7 3 8 2 9 7 5 7 7 10 5 6 8 5 7 8 4 3 3 1 1 1 4 7 9 8 11 14 16 14 15 15 14 14 13
26 26 27 27 27 21 6 3 5 5 6 6 5 4 3 2 7 10 8 10 8 7 5 8 10 4 2 3 8 9 7 5 5 9 10 10 9 13 16 14 14 15 15 15 15
26 27 28 28 29 6 4 4 3 5 5 10 6 8 5 9 10 14 14 10 10 7 9 12 8 4 4 7 9 10 9 4 1 10 4 8 10 12 14 14 12 12 14 15 15
25 26 25 33 6 3 2 2 9 5 4 11 10 8 8 7 8 7 12 8 6 10 4 7 1 5 8 6 9 7 1 6 8 12 5 10 4 12 14 14 14 12 12 13 14
27 25 21 12 7 3 4 7 1 4 5 5 9 3 5 14 11 10 6 8 12 10 8 7 7 7 11 3 3 6 2 4 6 8 4 9 8 9 8 12 15 14 9 11 12
26 26 18 4 4 3 5 4 4 6 6 6 6 10 13 14 7 8 12 8 2 7 8 2 2 4 1 3 3 11 9 6 4 7 9 7 7 11 7 5 3 8 16 14 13
29 24 5 3 2 4 5 4 5 8 3 5 5 9 18 13 13 10 15 16 12 12 12 8 7 2 6 7 7 9 11 8 9 9 10 6 6 11 7 3 4 7 11 16 13
30 16 5 3 5 6 5 7 8 3 3 2 2 6 16 13 15 11 11 15 10 10 10 13 10 10 3 7 8 13 12 11 11 10 8 5 6 7 5 3 3 8 14 15 15
28 3 2 4 4 4 7 10 3 3 1 2 5 8 13 10 7 13 15 15 16 14 10 11 9 7 4 4 2 7 9 6 12 6 11 11 7 5 5 6 4 5 12 12 14
4 2 4 3 1 6 8 12 2 2 2 4 7 3 11 15 13 13 14 13 8 9 10 7 9 6 6 5 5 6 7 7 8 14 13 8 5 2 7 5 9 10 10 9 11
4 3 3 3 4 5 9 8 4 5 3 4 3 5 4 7 12 14 12 5 9 10 10 8 12 11 7 9 8 6 8 5 6 4 10 9 3 5 5 5 10 9 10 11 15
4 2 3 3 4 2 6 1 2 6 5 5 4 7 7 4 10 12 12 7 6 8 11 11 9 10 11 6 2 4 5 8 8 11 8 9 2 6 8 11 11 10 11 13 13
3 2 2 4 2 4 4 5 5 9 11 10 10 6 4 5 6 10 12 6 7 10 7 9 8 7 7 8 5 8 4 6 6 7 9 9 4 8 9 13 12 12 11 11 11
4 3 3 1 1 4 2 2 5 4 10 12 12 11 15 13 8 4 9 5 7 4 3 3 4 9 5 2 7 8 8 5 10 9 10 10 11 12 13 15 14 13 13 12 12
3 3 3 2 4 2 3 3 7 7 8 9 10 17 14 14 11 11 9 7 7 7 4 5 4 2 5 6 4 3 5 5 10 11 10 6 4 14 14 15 14 14 12 11 9
4 3 2 1 1 4 5 1 8 7 8 10 11 14 14 16 12 3 11 9 8 7 7 4 4 8 7 4 5 4 3 3 4 5 6 7 4 15 14 14 13 12 10 9 9
3 1 4 3 3 5 3 5 7 9 6 10 11 9 12 14 10 8 7 5 4 8 6 3 8 6 5 1 3 7 4 6 4 5 7 8 8 16 15 15 13 10 7 7 7
Wind_Direction
356 354 353 348 341 336 334 336 333 329 333 324 329 322 316 327 307 203 211 140 170 170 212 152 148 169 219 38 330 277 111 98 105 106 122 126 119 89 105 131 108 101 136 133 144
355 354 351 348 341 336 333 334 329 327 329 322 327 318 318 332 250 212 101 123 134 166 173 172 155 163 200 28 331 276 91 80 90 96 126 131 121 124 141 126 119 111 119 135 149
353 352 348 343 339 335 332 331 326 324 324 320 322 315 318 312 240 102 123 124 153 185 176 140 148 197 214 202 124 33 74 71 100 124 134 131 119 128 135 127 144 144 143 149 156
351 349 345 340 337 332 330 328 325 321 318 317 316 313 314 249 107 96 125 135 172 195 177 188 190 197 191 168 136 145 96 118 118 137 130 127 122 134 49 124 136 141 146 152 162
346 341 340 339 334 330 326 323 320 315 312 310 309 312 275 214 78 121 127 130 167 200 235 87 162 183 138 107 131 74 90 111 120 134 125 128 122 113 93 142 134 137 148 155 161
334 330 331 332 331 329 324 320 315 308 304 301 301 304 249 172 52 139 153 163 186 209 218 315 23 7 96 89 42 114 108 106 123 122 130 128 134 118 113 139 137 145 149 152 156
334 332 335 335 331 327 323 317 308 299 294 289 286 280 251 72 24 148 164 187 184 211 220 31 328 288 140 120 142 128 122 116 131 140 147 138 132 103 134 140 144 152 148 146 151
335 331 336 335 331 326 323 313 303 291 281 267 262 254 86 14 118 158 177 188 206 234 270 318 260 310 346 113 168 151 199 158 150 163 161 236 119 136 151 150 153 153 150 154 156
334 331 336 334 331 326 320 314 302 276 224 198 229 259 122 142 180 168 191 191 177 203 227 261 231 160 183 183 155 205 121 112 148 195 153 225 115 147 162 163 156 162 159 164 161
333 332 336 333 331 327 318 286 293 197 202 225 257 233 169 155 142 168 189 244 233 156 169 181 219 203 174 188 43 103 142 125 129 174 185 177 110 155 169 170 168 170 167 169 173
334 333 337 332 330 326 314 211 204 168 207 317 158 6 131 124 172 195 177 189 212 238 223 202 239 207 183 232 344 306 293 120 134 146 188 170 140 162 175 176 171 178 177 181 181
333 336 335 332 327 322 273 283 41 354 203 208 236 253 228 277 181 187 184 204 203 221 215 207 231 113 267 259 270 251 253 209 124 156 226 152 153 161 177 183 174 179 180 186 186
334 334 334 330 322 285 310 71 31 320 255 169 196 216 186 197 215 183 197 209 216 196 242 267 61 91 260 265 255 228 244 173 133 158 204 163 151 160 172 184 175 188 183 190 188
333 331 333 327 296 359 173 46 308 245 257 155 197 202 183 221 202 161 208 208 216 231 188 288 118 263 244 234 239 176 280 223 158 191 175 217 114 170 167 184 185 188 186 195 196
330 328 326 328 323 225 50 327 159 234 259 109 154 75 162 202 124 174 178 210 237 198 218 193 236 215 243 212 236 112 165 156 193 240 256 179 272 128 166 184 186 190 187 205 202
327 324 322 192 217 335 307 291 236 230 231 159 167 186 183 204 174 133 177 221 299 190 215 235 325 229 38 74 258 147 150 150 199 262 239 130 259 134 115 94 180 203 185 191 208
327 325 280 293 68 331 296 211 217 244 119 154 202 196 201 186 185 196 185 192 197 200 204 185 201 128 196 164 158 218 206 228 219 215 242 108 224 75 100 88 280 247 221 192 177
325 319 169 300 307 303 226 209 235 38 254 58 273 230 220 197 207 192 201 206 224 235 227 202 187 174 188 240 229 213 247 251 258 256 261 119 252 103 94 78 286 242 222 196 185
315 168 200 25 283 246 221 215 231 201 237 274 224 232 207 212 266 206 216 215 198 216 234 216 205 125 188 149 240 173 225 321 282 239 272 269 118 183 119 78 24 123 143 161 168
310 232 68 9 330 239 223 233 156 296 313 250 252 231 235 203 206 206 195 216 199 220 234 222 207 181 144 155 91 290 127 214 219 267 259 244 258 212 158 120 108 90 96 111 123
239 217 81 295 263 214 221 224 190 187 313 302 246 244 238 254 225 210 210 142 218 179 217 240 239 150 192 212 202 169 203 235 290 290 287 264 185 82 124 133 121 120 130 101 74
294 202 48 273 204 240 230 275 35 236 213 272 286 284 274 236 223 232 210 227 165 186 204 216 223 185 193 78 279 293 307 230 235 203 237 292 43 125 127 127 114 101 97 87 84
348 19 129 274 225 166 138 222 256 250 248 248 244 238 320 280 238 224 225 92 180 193 207 191 224 164 180 174 179 221 178 270 283 290 267 279 93 146 137 115 113 113 104 111 114
286 213 146 159 348 313 333 272 264 226 268 259 256 257 247 251 250 229 201 160 167 176 319 215 247 257 240 185 148 176 186 219 255 272 272 238 133 160 153 136 130 127 134 137 126
345 67 4 159 133 328 269 331 283 281 248 262 251 237 236 237 235 238 198 159 170 149 182 244 205 202 66 91 85 112 176 216 245 271 275 345 200 171 163 152 144 141 137 127 112
330 320 175 201 245 247 155 311 306 312 268 260 236 265 232 235 230 264 199 211 177 175 174 207 150 140 99 115 141 168 180 231 263 260 262 269 135 149 150 138 151 143 134 111 96
20 255 284 136 207 241 57 341 325 324 244 255 280 267 241 241 237 284 158 132 134 156 131 131 149 199 141 195 199 236 226 267 285 272 297 238 147 152 160 168 155 142 123 103 95